User: anonymous   Login
Location: Palmerston North
(40.3500°S, 175.6170°E)
Time: 02:25:19
(UTC+13:00)
Language:

Mayak - Orbit

View from above orbital plane
View from above orbital plane
View from above satellite
View from above satellite

Ground track
Ground track

The orbit data is extracted from the following two-line orbital elements,

1 42830U 17042F   19077.15973020  .00000508  00000-0  55770-4 0  9993
2 42830  97.5779 334.3299 0014761  10.7413 349.4118 14.91668494 91171
Epoch (UTC): 18 March 2019 03:50:00
Eccentricity: 0.0014761
inclination: 97.5779°
perigee height: 582 km
apogee height: 603 km
right ascension of ascending node: 334.3299°
argument of perigee: 10.7413°
revolutions per day: 14.91668494
mean anomaly at epoch: 349.4118°
orbit number at epoch: 9117

The dashed part of the orbit path shows where the satellite is in the earth's shadow,  

DLR